BLOCK DM-SL R/B, 29521

Orbit data source: Space-Track

BLOCK DM-SL R/B, 29521 is space debris in HEO originally from a launch on Mon, 30 Oct 2006 UTC launched from the Sea Launch (SEAL). Debris objects in space refer to the collection of defunct objects orbiting the Earth. Examples of debris include non-operational satellites, rocket bodies, and fragments generated from explosions, collisions, or faulty payload assembly.

Loading next visibility...
Identifier
29521, 2006-049B
Orbit
HEO
Last TLE update
10 hours ago
Origin
Manufacturer
RKKE
Mission
Spacecraft
Bus & Motor
BLOK DM2, 11D58M
Mass
~3,070 kg wet, 3,070 kg dry
Launch date (UTC)
2006-10-30 (19 years ago)
Launch vehicle
Unknown
Launch site
Sea Launch (SEAL)
Object type
Payload
Rocket body
Debris
Shape & HBR
Cyl, 6.3 m
Radar Cross Section
23.684 m², Large (>1 m²)

Expand to show TLE details & history

TLE from 10 hours ago
0 BLOCK DM-SL R/B
1 29521U 06049B   25188.90297523 -.00000079  00000-0  00000-0 0  9996
2 29521   0.0701 203.6657 6919495 146.6788 151.4426  2.18867211149408
Epoch: 2025-07-07T21:40Z
TLE epoch observation values (Epoch: 2025-07-07T21:40:17.059Z)
Latitude
-0.01974°
Longitude
-88.1653°
Altitude
35,243.852 km
Speed
1.802 km/s
True Right ascension
10h 52m 02s
True Declination
0° 01' 11"
Sunlit
Object was in daylight at epoch
Visualization orbit readout
Latitude
-0.01272°
Longitude
-100.53225°
Altitude
31,061.553 km
Speed
2.321 km/s
Apparent Right ascension
09h 45m 14s
Apparent Declination
-5° 38' 11"
Sunlit
Object is in daylight
Visualization observer readout
Local Sidereal Time
19:24:05
Azimuth
307.8° NW
Elevation
-43.32°
Doppler factor
1
Orbital elements
Apogee altitude
36,026.823 km
Perigee altitude
1,342.465 km
Semi-major axis
25,062.781 km
Eccentricity
0.69195
Inclination
0.0701°
RAAN
203.6657°
Arg. of periapsis
146.6788°
True anomaly
Unknown
Mean anomaly
151.4426°
Eccentric anomaly
Unknown
Mean motion
0.54702 °/min
Orbital period
658.12 mins
BSTAR
0
Loading maneuver chart data...
Loading SW <> Apogee altitude chart data...
Loading historical data...
Loading historical data...
Loading historical data...
Loading historical data...
Loading historical data...
Loading historical data...
Loading historical data...
Other satellites on launch #49 in the year 2006 (2006-10-30 UTC)

BLOCK DM-SL R/B Visibility forecast

Observer location: undefined°, undefined°

Span
Click to sort rows by Start time (UTC) header in descending order
Start Az.
Max El. time (UTC)
Max El. Az.
Max El.
End time (UTC)
End Az.
594 mins2025-07-08 15:16:33.695Z178.819° S2025-07-08 23:07:33.695Z141.916° SSE29.602°2025-07-09 01:10:33.695Z123.269° SE
|